TimeEST,TemperatureF,Dew PointF,Humidity,Sea Level PressureIn,VisibilityMPH,Wind Direction,Wind SpeedMPH,Gust SpeedMPH,PrecipitationIn,Events,Conditions,WindDirDegrees,DateUTC
12:53 AM,39.9,30.0,68,30.51,10.0,ESE,6.9,-,N/A,,Clear,120,2012-11-18 05:53:00
1:53 AM,37.0,30.0,76,30.50,10.0,SE,5.8,-,N/A,,Clear,130,2012-11-18 06:53:00
2:53 AM,36.0,30.0,79,30.51,8.0,ESE,5.8,-,N/A,,Clear,120,2012-11-18 07:53:00
3:53 AM,35.1,28.9,78,30.50,8.0,Calm,Calm,-,N/A,,Clear,0,2012-11-18 08:53:00
4:53 AM,35.1,28.9,78,30.49,7.0,ESE,4.6,-,N/A,,Clear,110,2012-11-18 09:53:00
5:53 AM,33.1,28.0,82,30.50,6.0,ESE,4.6,-,N/A,,Haze,120,2012-11-18 10:53:00
6:53 AM,33.1,28.0,82,30.50,5.0,ESE,3.5,-,N/A,,Haze,120,2012-11-18 11:53:00
7:53 AM,36.0,30.0,79,30.51,5.0,SE,6.9,-,N/A,,Haze,130,2012-11-18 12:53:00
8:53 AM,37.9,32.0,79,30.50,5.0,SE,5.8,-,N/A,,Haze,130,2012-11-18 13:53:00
9:53 AM,45.0,34.0,65,30.50,8.0,SE,9.2,-,N/A,,Clear,140,2012-11-18 14:53:00
10:53 AM,50.0,34.0,54,30.49,10.0,SSE,9.2,-,N/A,,Clear,150,2012-11-18 15:53:00
11:53 AM,54.0,33.1,45,30.47,10.0,SSE,9.2,-,N/A,,Clear,160,2012-11-18 16:53:00
12:53 PM,57.0,32.0,39,30.44,10.0,South,8.1,-,N/A,,Clear,170,2012-11-18 17:53:00
1:53 PM,57.9,30.0,35,30.42,10.0,SE,6.9,-,N/A,,Clear,130,2012-11-18 18:53:00
2:53 PM,59.0,28.9,32,30.41,10.0,SSE,6.9,-,N/A,,Clear,150,2012-11-18 19:53:00
3:53 PM,57.9,28.9,33,30.40,10.0,SE,5.8,-,N/A,,Clear,140,2012-11-18 20:53:00
4:53 PM,53.1,28.0,38,30.40,10.0,SE,6.9,-,N/A,,Unknown,130,2012-11-18 21:53:00
5:53 PM,46.9,27.0,46,30.41,10.0,East,4.6,-,N/A,,Clear,100,2012-11-18 22:53:00
6:53 PM,43.0,27.0,53,30.41,10.0,ESE,5.8,-,N/A,,Clear,120,2012-11-18 23:53:00
7:53 PM,44.1,28.0,53,30.41,10.0,ESE,4.6,-,N/A,,Clear,120,2012-11-19 00:53:00
8:53 PM,42.1,28.0,58,30.41,10.0,ESE,3.5,-,N/A,,Clear,110,2012-11-19 01:53:00
9:53 PM,39.9,28.0,63,30.40,10.0,SE,5.8,-,N/A,,Unknown,130,2012-11-19 02:53:00
11:53 PM,39.9,30.0,68,30.38,10.0,SSE,5.8,-,N/A,,Clear,150,2012-11-19 04:53:00